ELEKTRO-L 4

Last updated on Sun Apr 12 2026 00:02:56 GMT+0000 (Coordinated Universal Time)

1 55506U 23016A 26100.98607912 -.00000057 00000+0 00000+0 0 9995 2 55506 0.0561 13.6657 0000906 266.6933 79.6289 1.00270267 11663
UTC large
Height (km)
Speed (km/s)
/
Latitude / Longitude
Inclination (degrees)
Orbital Period (minutes)
Azimuth
Elevation
Range (km)
Doppler Factor

Next 0 passes for location: London (51.5072 / 0.1276)

Sorry there are no passes over London.
ELEKTRO-L 4